Find Starlink 31171

NORAD ID: 58834 Int'l Des: 2024-017 Owner: SPXS Country: US Constellation: starlink operational
LEOCIRCULAR

リアルタイム位置

3D地球を読み込み中...

Starlink 31171について

説明を読み込み中...

次回通過

Passes for default location (London). Set your location on the main map for personalized predictions.

高度履歴

Loading altitude history...

軌道要素

1 58834U 24017J 26121.80090851 -.00000032 00000-0 11037-4 0 9997
2 58834 53.1612 294.0663 0001175 96.9434 263.1701 15.30189066128513
Epoch: May 1, 2026 • Age: 11 hours

現在のステータス

高度 481.0 km
速度 7.63 km/s
衛星直下点 53.29°N, 60.8°E
打ち上げ日 Jan 24, 2024
運用期間 2.2 years
タイプ internet

技術仕様

分類 Payload
質量 730.00 kg
乾燥質量 700.00 kg
総質量 730.00 kg
長さ 0.30 m
直径 4.10 m
スパン 29.00 m
形状 Box + pan
製造者 SPXS
バスタイプ Starlink V2M
フェーズステータス In Orbit
所有者/国 SPXS/US

Most Searched